GOES 9 [-]

Last updated on Jan. 23, 2021, 7:09 a.m. UTC

1 23581U 95025A   21022.50911553 -.00000050  00000-0  00000-0 0  9992
2 23581  12.2237  27.9836 0003337  37.0987 336.5480  0.98798167 93289
UTC
Height (km)
Latitude
Longitude
Inclination
Orbital Period
UTC large
Height (km)
Speed (km/s)
/
Latitude / Longitude
Inclination (degrees)
Orbital Period (minutes)
Azimuth
Elevation
Range (km)
Doppler Factor
iOS Compass Heading
iOS Angle

Next 30 passes for location: Hong Kong

Rise time Rise Azimuth (degrees) Set time Set Azimuth (degrees) Duration Max altitude (degrees)

No matching passes for this satellites